Tracking 19170 objects as of 23-May-2018
HD Live streaming from Space Station
objects crossing your sky now

NOAA 16 DEB

Track NOAA 16 DEB now!
10-day predictions


NORAD ID: 41051
Int'l Code: 2000-055J
Perigee: 833.4 km
Apogee: 865.4 km
Inclination: 98.9 °
Period: 101.8 minutes
Semi major axis: 7220 km
RCS: Unknown
Launch date: September 21, 2000
Source: United States (US)
Launch site: AIR FORCE WESTERN TEST RANGE (AFWTR)

Note: This is SATELLITE DEBRIS
aabbcc
Your satellite tracking list
Your tracking list is empty




NASA's NSSDC Master Catalog

Two Line Element Set (TLE):
1 41051U 00055J   18142.16267161  .00000630  00000-0  34733-3 0  9999
2 41051  98.8691 220.3471 0022164 108.2633 252.0955 14.15020920128453
Source of the keplerian elements: AFSPC